Stations météo

Publicité
Beauvais, France (7055): Température de l'air & dewpoint: 13.10.2018 21:00:00 - 19.10.2018 21:00:00 (CEST)Beauvais, France (7055): Température de l'air 5cm: 13.10.2018 21:00:00 - 19.10.2018 21:00:00 (CEST)Beauvais, France (7055): Température de l'air -20cm & Température de l'air -100cm: 13.10.2018 21:00:00 - 19.10.2018 21:00:00 (CEST)Beauvais, France (7055): Vitesse du vent & gusts: 13.10.2018 21:00:00 - 19.10.2018 21:00:00 (CEST)Beauvais, France (7055): Direction du vent: 13.10.2018 21:00:00 - 19.10.2018 21:00:00 (CEST)Beauvais, France (7055): reduced air pressure: 13.10.2018 21:00:00 - 19.10.2018 21:00:00 (CEST)Beauvais, France (7055): visibility: 13.10.2018 21:00:00 - 19.10.2018 21:00:00 (CEST)Beauvais, France (7055): Ensoleillement: 13.10.2018 21:00:00 - 19.10.2018 21:00:00 (CEST)Beauvais, France (7055): Quantités de précipitations: 13.10.2018 21:00:00 - 19.10.2018 21:00:00 (CEST)
Date & Time tt [°C] td [°C] tt 5cm [°C] tt -20cm [°C] tt -100cm [°C] ff [km/h] ff [knt] fx [km/h] fx [knt] dd ppp [hPa] vv [km] sd [min] rr [mm]
19.10.2018 21:00:00 11,6 8,1 8,3 14,6 15,2 8 4 21 12 N 1026,3 15 0 0,0
19.10.2018 20:00:00 11,6 9,0 8,6 14,6 15,2 7 4 14 8 N 1025,8 9 0 0,0
19.10.2018 19:00:00 13,6 9,4 11,2 14,6 15,1 8 4 20 11 N 1025,0 11 0 0,0
19.10.2018 18:00:00 15,5 10,3 14,3 14,6 15,2 13 7 22 12 N 1024,2 11 0 0,0
19.10.2018 17:00:00 17,0 11,0 17,0 14,6 15,2 11 6 29 16 NNE 1023,8 10 46 0,0
19.10.2018 16:00:00 17,4 10,7 19,7 14,6 15,1 14 8 31 17 NNE 1023,6 8 60 0,0
19.10.2018 15:00:00 16,8 10,9 21,0 14,6 15,1 13 7 24 13 NE 1023,7 7 60 0,0
19.10.2018 14:00:00 15,7 10,7 21,9 14,6 15,2 12 7 24 13 NNE 1024,1 6 60 0,0
19.10.2018 13:00:00 15,0 10,8 21,0 14,7 15,2 11 6 29 15 NNE 1024,5 3,2 60 0,0
19.10.2018 12:00:00 13,5 10,7 16,3 14,7 15,2 9 5 15 8 NE 1024,1 6 60 0,0
19.10.2018 11:00:00 11,6 10,2 12,9 14,8 15,2 6 4 23 12 ENE 1024,3 6 37 0,0
19.10.2018 10:00:00 10,3 9,5 7,8 14,8 15,2 9 5 30 16 NNE 1024,2 4,4 60 0,0
19.10.2018 09:00:00 8,1 8,0 4,5 14,8 15,2 5 3 13 7 N 1024,0 5 2 0,0
19.10.2018 08:00:00 6,8 6,5 4,8 14,9 15,2 3 1 13 7 NW 1023,5 4,0 0 0,0
19.10.2018 07:00:00 6,6 6,2 4,8 14,9 15,2 4 2 8 5 NW 1023,4 2,7 0 0,0
19.10.2018 06:00:00 7,7 6,9 5,6 15,0 15,2 4 2 8 4 NW 1023,2 0,3 0 0,0
19.10.2018 05:00:00 9,7 8,6 7,8 15,0 15,2 4 2 14 7 NNW 1023,3 2,5 0 0,0
19.10.2018 04:00:00 10,5 9,4 8,1 15,0 15,2 7 4 17 9 NE 1023,6 4,1 0 0,0
19.10.2018 03:00:00 9,6 8,0 8,1 15,0 15,2 5 3 22 12 NE 1023,6 9 0 0,0
19.10.2018 02:00:00 10,2 8,8 8,8 15,0 15,2 11 6 21 12 NNE 1023,3 12 0 0,0
19.10.2018 01:00:00 10,5 8,8 9,1 15,0 15,2 9 5 22 12 NNE 1023,5 15 0 0,0
19.10.2018 00:00:00 10,8 8,9 9,4 15,1 15,2 11 6 22 12 N 1023,7 17 0 0,0
18.10.2018 23:00:00 11,3 9,0 9,7 15,1 15,2 12 7 25 13 NNE 1023,9 19 0 0,0
18.10.2018 22:00:00 11,7 9,3 9,9 15,0 15,2 10 5 24 13 NNE 1023,7 20 0 0,0
18.10.2018 21:00:00 12,1 9,3 10,1 15,0 15,2 9 5 20 11 N 1023,5 20 0 0,0
18.10.2018 20:00:00 12,8 9,2 10,4 15,0 15,2 8 4 19 10 N 1023,2 24 0 0,0
18.10.2018 19:00:00 14,6 10,0 12,9 15,0 15,2 11 6 30 16 NNE 1022,5 19 0 0,0
18.10.2018 18:00:00 16,6 9,5 15,8 15,0 15,2 19 10 41 22 NE 1022,1 37 49 0,0
18.10.2018 17:00:00 17,3 10,4 17,6 15,0 15,2 21 12 45 24 NE 1022,2 17 54 0,0
18.10.2018 16:00:00 17,4 10,5 18,1 15,0 15,2 22 12 44 24 NNE 1022,5 16 38 0,0
18.10.2018 15:00:00 17,6 11,2 19,5 15,0 15,2 24 13 44 24 NE 1022,7 9 47 0,0
18.10.2018 14:00:00 17,3 11,3 21,6 15,0 15,2 23 12 39 21 NNE 1023,0 9 60 0,0
18.10.2018 13:00:00 16,0 11,2 21,1 15,1 15,2 23 12 37 20 NNE 1023,3 8 58 0,0
18.10.2018 12:00:00 15,3 11,3 19,7 15,1 15,2 19 11 30 16 NNE 1023,3 7 60 0,0
18.10.2018 11:00:00 14,1 11,3 15,4 15,2 15,2 14 8 27 15 NNE 1023,0 7 60 0,0
18.10.2018 10:00:00 12,7 11,1 10,6 15,2 15,2 10 5 28 15 NNE 1023,0 5 60 0,0
18.10.2018 09:00:00 10,8 9,9 8,9 15,2 15,2 7 4 16 9 N 1023,1 4,7 3 0,0
18.10.2018 08:00:00 10,8 9,9 9,0 15,3 15,2 10 5 22 12 NNE 1022,7 5 0 0,0
18.10.2018 07:00:00 10,7 9,6 9,4 15,3 15,2 8 4 20 11 NNE 1022,4 4,9 0 0,0
18.10.2018 06:00:00 11,4 10,3 10,0 15,3 15,2 12 7 24 13 N 1022,2 5 0 0,0
18.10.2018 05:00:00 11,8 10,4 10,3 15,3 15,2 13 7 24 13 N 1022,1 7 0 0,0
18.10.2018 04:00:00 11,7 9,6 10,1 15,3 15,2 10 5 21 12 N 1022,1 10 0 0,0
18.10.2018 03:00:00 11,4 9,3 10,1 15,3 15,2 11 6 20 11 N 1021,9 10 0 0,0
18.10.2018 02:00:00 12,1 10,0 10,8 15,3 15,2 12 6 26 14 N 1021,8 8 0 0,0
18.10.2018 01:00:00 12,2 10,3 10,7 15,3 15,2 9 5 21 11 N 1021,6 9 0 0,0
18.10.2018 00:00:00 13,2 10,7 11,5 15,3 15,2 9 5 21 11 N 1021,5 13 0 0,0
17.10.2018 23:00:00 13,5 11,0 12,0 15,3 15,2 9 5 18 10 N 1021,3 14 0 0,0
17.10.2018 22:00:00 14,2 11,4 11,9 15,3 15,2 8 5 26 14 N 1020,9 18 0 0,0
17.10.2018 21:00:00 14,2 11,2 11,5 15,3 15,2 10 5 23 12 N 1020,4 18 0 0,0
17.10.2018 20:00:00 14,3 10,9 11,8 15,2 15,2 9 5 13 7 N 1019,9 18 0 0,0
17.10.2018 19:00:00 16,1 11,3 13,7 15,2 15,2 6 3 17 9 NNE 1018,9 21 7 0,0
17.10.2018 18:00:00 18,6 11,7 17,4 15,2 15,2 9 5 22 12 NE 1018,3 25 27 0,0
17.10.2018 17:00:00 19,7 11,7 20,0 15,2 15,2 7 4 16 9 NE 1018,5 19 41 0,0
17.10.2018 16:00:00 19,5 12,3 21,5 15,2 15,2 5 3 12 7 ESE 1018,4 21 1 0,0
17.10.2018 15:00:00 19,4 11,7 23,7 15,2 15,2 4 2 10 5 N 1018,6 18 34 0,0
17.10.2018 14:00:00 18,5 11,8 24,0 15,2 15,2 4 2 9 5 NNE 1019,1 20 46 0,0
17.10.2018 13:00:00 17,2 12,7 24,8 15,2 15,2 2 1 7 4 NNE 1019,6 19 60 0,0
17.10.2018 12:00:00 14,8 14,0 18,4 15,2 15,2 2 1 5 3 E 1020,0 7 54 0,0
17.10.2018 11:00:00 12,0 11,8 15,1 15,3 15,2 2 1 5 3 S 1020,3 0,4 22 0,0
17.10.2018 10:00:00 10,4 10,2 11,0 15,3 15,2 2 1 5 3 W 1020,2 0,2 36 0,0
17.10.2018 09:00:00 9,6 9,5 10,0 15,3 15,2 4 2 8 4 WNW 1019,9 0,2 2 0,0
17.10.2018 08:00:00 9,3 9,0 10,3 15,4 15,2 3 2 9 5 WNW 1019,6 0,2 0 0,2
17.10.2018 07:00:00 10,0 9,7 10,4 15,4 15,2 5 3 7 4 NW 1019,6 0,2 0 0,0
17.10.2018 06:00:00 10,3 10,0 9,4 15,5 15,2 3 1 8 5 NNW 1019,3 0,1 0 0,0
17.10.2018 05:00:00 9,6 9,1 7,0 15,5 15,2 3 2 5 3 NW 1019,1 0,8 0 0,0
17.10.2018 04:00:00 8,8 7,9 7,2 15,5 15,2 4 2 8 4 NNW 1019,3 1,0 0 0,0
17.10.2018 03:00:00 11,1 10,5 8,1 15,5 15,2 3 2 8 5 NW 1019,3 2,4 0 0,0
17.10.2018 02:00:00 10,6 9,7 9,0 15,5 15,2 4 2 12 6 WNW 1019,4 8 0 0,0
17.10.2018 01:00:00 10,5 9,6 8,4 15,5 15,2 9 5 14 8 NW 1019,4 14 0 0,0
17.10.2018 00:00:00 11,3 9,6 8,4 15,5 15,2 2 1 5 3 N 1019,1 20 0 0,0
16.10.2018 23:00:00 12,3 9,8 9,1 15,5 15,2 0 0 6 3 N 1019,2 21 0 0,0
16.10.2018 22:00:00 14,0 11,0 9,7 15,5 15,2 3 1 5 3 NW 1019,0 23 0 0,0
16.10.2018 21:00:00 15,3 10,9 10,6 15,4 15,2 2 1 5 3 NW 1018,7 22 0 0,0
16.10.2018 20:00:00 17,5 10,6 11,4 15,4 15,2 6 3 10 5 W 1018,2 23 0 0,0
16.10.2018 19:00:00 20,2 10,9 13,9 15,4 15,2 4 2 14 8 SW 1017,6 20 0 0,0
16.10.2018 18:00:00 23,1 10,8 20,0 15,3 15,2 8 4 18 10 SSW 1017,2 11 47 0,0
16.10.2018 17:00:00 24,1 11,1 23,5 15,3 15,2 9 5 21 11 SSW 1017,1 6 56 0,0
16.10.2018 16:00:00 24,2 10,8 27,1 15,3 15,2 11 6 23 12 SSW 1017,1 2,5 60 0,0
16.10.2018 15:00:00 24,0 10,6 27,9 15,3 15,2 10 5 21 11 S 1017,3 21 60 0,0
16.10.2018 14:00:00 23,3 10,0 27,7 15,4 15,2 8 4 19 10 S 1017,4 9 56 0,0
16.10.2018 13:00:00 22,2 10,0 26,3 15,4 15,2 7 4 13 7 SE 1017,7 21 60 0,0
16.10.2018 12:00:00 19,6 10,6 23,1 15,4 15,2 4 2 11 6 SE 1017,9 19 60 0,0
16.10.2018 11:00:00 16,7 10,8 19,5 15,5 15,2 6 3 10 5 ESE 1018,1 13 60 0,0
16.10.2018 10:00:00 13,4 10,6 8,7 15,6 15,2 0 0 2 1 N 1018,0 13 60 0,0
16.10.2018 09:00:00 8,9 7,7 6,0 15,6 15,2 0 0 2 1 N 1017,7 11 6 0,0
16.10.2018 08:00:00 8,5 7,4 5,8 15,6 15,2 0 0 4 2 N 1017,4 12 0 0,0
16.10.2018 07:00:00 8,5 6,6 6,3 15,6 15,2 0 0 4 2 N 1017,2 15 0 0,0
16.10.2018 06:00:00 9,6 7,4 6,6 15,7 15,1 3 2 7 4 NE 1016,9 15 0 0,0
16.10.2018 05:00:00 10,0 7,8 7,0 15,7 15,2 0 0 8 4 N 1016,2 15 0 0,0
16.10.2018 04:00:00 10,8 8,6 7,6 15,7 15,2 0 0 3 2 N 1016,1 14 0 0,0
16.10.2018 03:00:00 12,0 9,7 9,6 15,7 15,1 0 0 7 4 N 1016,1 15 0 0,0
16.10.2018 02:00:00 13,4 10,4 12,2 15,8 15,1 3 2 6 4 NNW 1015,7 17 0 0,0
16.10.2018 01:00:00 13,3 10,1 9,2 15,7 15,1 4 2 9 5 NNE 1015,4 19 0 0,0
16.10.2018 00:00:00 12,9 8,2 9,0 15,7 15,1 5 3 9 5 E 1015,1 21 0 0,0
15.10.2018 23:00:00 14,4 8,8 8,9 15,7 15,1 5 3 10 5 ESE 1014,8 22 0 0,0
15.10.2018 22:00:00 13,8 8,2 9,6 15,7 15,1 5 3 9 5 E 1014,0 22 0 0,0
15.10.2018 21:00:00 14,4 8,6 10,6 15,7 15,1 4 2 10 5 ENE 1013,5 23 0 0,0
15.10.2018 20:00:00 17,3 9,2 12,0 15,6 15,1 4 2 10 5 E 1013,0 24 0 0,0
15.10.2018 19:00:00 19,6 10,0 15,9 15,6 15,1 7 4 14 8 SE 1011,9 26 0 0,0
15.10.2018 18:00:00 23,9 10,2 21,1 15,5 15,1 7 4 21 11 SSE 1011,0 26 52 0,0
15.10.2018 17:00:00 24,8 11,4 23,0 15,5 15,1 7 4 24 13 S 1010,6 29 37 0,0
15.10.2018 16:00:00 24,7 10,2 26,0 15,5 15,1 11 6 26 14 S 1010,5 20 60 0,0
15.10.2018 15:00:00 24,2 10,5 27,3 15,5 15,1 14 8 27 14 SSE 1010,6 20 60 0,0
15.10.2018 14:00:00 23,5 10,9 28,0 15,5 15,1 15 8 26 14 SSE 1010,7 23 60 0,0
15.10.2018 13:00:00 22,3 12,5 26,9 15,5 15,1 11 6 26 14 S 1010,8 23 60 0,0
15.10.2018 12:00:00 21,0 12,9 19,8 15,6 15,1 10 5 21 11 S 1010,5 24 33 0,0
15.10.2018 11:00:00 18,0 13,9 18,0 15,6 15,1 13 7 20 11 SE 1010,5 32 9 0,0
15.10.2018 10:00:00 17,3 13,0 13,7 15,6 15,1 5 3 16 9 ESE 1009,9 23 50 0,0
15.10.2018 09:00:00 14,8 12,1 12,8 15,6 15,1 10 5 16 8 ESE 1009,5 19 6 0,0
15.10.2018 08:00:00 14,9 11,9 13,3 15,6 15,0 6 4 12 7 SE 1008,9 19 0 0,0
15.10.2018 07:00:00 15,6 12,0 14,0 15,6 15,1 4 2 14 8 SE 1008,6 25 0 0,0
15.10.2018 06:00:00 16,9 12,4 14,5 15,7 15,1 10 5 21 11 SSE 1007,8 31 0 0,0
15.10.2018 05:00:00 15,5 11,7 13,6 15,6 15,0 6 3 13 7 ESE 1007,6 30 0 0,0
15.10.2018 04:00:00 14,8 11,6 12,0 15,7 15,0 5 3 11 6 E 1007,2 28 0 0,0
15.10.2018 03:00:00 15,8 11,2 11,8 15,7 15,1 6 4 16 9 SE 1006,8 25 0 0,0
15.10.2018 02:00:00 14,3 11,1 11,4 15,7 15,0 11 6 16 9 ESE 1006,5 23 0 0,0
15.10.2018 01:00:00 15,0 11,2 12,6 15,6 15,0 10 5 17 9 ESE 1006,1 23 0 0,0
15.10.2018 00:00:00 16,7 12,0 13,2 15,6 15,0 12 6 19 11 E 1006,0 24 0 0,0
14.10.2018 23:00:00 16,1 11,7 14,2 15,6 15,0 11 6 20 11 E 1006,1 24 0 0,0
14.10.2018 22:00:00 18,2 12,0 13,1 15,6 15,0 13 7 16 9 ESE 1005,8 27 0 0,0
14.10.2018 21:00:00 17,4 11,7 13,2 15,5 15,0 5 3 12 7 E 1005,7 28 0 0,0
14.10.2018 20:00:00 17,9 12,1 14,0 15,5 15,0 6 4 17 9 E 1005,4 28 0 0,0
14.10.2018 19:00:00 20,1 12,6 17,8 15,4 15,0 12 7 18 10 ESE 1004,9 29 16 0,0
14.10.2018 18:00:00 23,4 13,8 22,3 15,4 15,0 10 5 22 12 SE 1004,9 34 42 0,0
14.10.2018 17:00:00 24,0 12,9 23,6 15,4 15,0 14 8 29 16 SE 1004,8 16 30 0,0
14.10.2018 16:00:00 24,8 13,4 25,7 15,4 15,0 16 8 34 19 SSE 1004,9 12 56 0,0
14.10.2018 15:00:00 23,3 12,9 24,7 15,4 15,0 19 10 35 19 S 1005,3 9 21 0,0
14.10.2018 14:00:00 23,8 13,9 25,2 15,4 15,0 16 9 31 17 SSE 1005,3 5 49 0,0
14.10.2018 13:00:00 22,5 13,3 25,3 15,4 15,0 16 9 31 17 SE 1005,7 9 57 0,0
14.10.2018 12:00:00 21,0 13,2 23,4 15,4 14,9 18 10 32 17 SSE 1005,9 9 60 0,0
14.10.2018 11:00:00 18,7 13,1 18,7 15,4 14,9 16 9 29 15 SE 1006,1 17 60 0,0
14.10.2018 10:00:00 16,5 13,2 14,2 15,5 15,0 13 7 23 12 SE 1006,2 19 46 0,0
14.10.2018 09:00:00 14,1 12,7 12,3 15,5 14,9 5 3 21 11 ESE 1006,7 19 10 0,0
14.10.2018 08:00:00 14,0 12,6 12,4 15,5 14,9 9 5 16 8 ESE 1006,9 19 0 0,0
14.10.2018 07:00:00 13,7 12,1 12,5 15,5 14,9 9 5 18 10 ESE 1007,4 20 0 0,0
14.10.2018 06:00:00 13,9 12,5 12,4 15,5 14,9 12 7 17 9 ESE 1008,1 22 0 0,0
14.10.2018 05:00:00 14,2 12,2 12,0 15,5 14,9 7 4 14 8 ESE 1008,5 23 0 0,0
14.10.2018 04:00:00 13,8 11,8 12,0 15,5 14,9 5 3 14 7 ESE 1008,7 24 0 0,0
14.10.2018 03:00:00 15,0 13,0 12,2 15,5 14,9 8 4 14 7 ESE 1009,4 20 0 0,0
14.10.2018 02:00:00 14,0 11,9 12,2 15,5 14,9 7 4 10 5 E 1010,1 10 0 0,0
14.10.2018 01:00:00 14,8 12,8 12,8 15,5 14,9 6 4 10 5 E 1011,0 27 0 0,0
14.10.2018 00:00:00 15,2 12,9 12,8 15,4 14,9 7 4 9 5 E 1011,6 18 0 0,0
13.10.2018 23:00:00 16,1 12,5 12,9 15,4 14,9 3 2 9 5 E 1012,0 32 0 0,0
13.10.2018 22:00:00 16,9 13,2 13,4 15,4 14,9 4 2 7 4 E 1012,2 15 0 0,0
13.10.2018 21:00:00 18,3 14,0 14,3 15,3 14,9 4 2 15 8 SE 1012,3 17 0 0,0

tt = Température de l'air
td = dewpoint
tt 5cm = Température de l'air 5cm
tt -20cm = Température de l'air -20cm
tt -100cm = Température de l'air -100cm
ff = Vitesse du vent
fx = gusts
dd = Direction du vent
ppp = reduced air pressure
vv = visibility
sd = Ensoleillement
rr = Quantités de précipitations

stations d'obs. à proximité